Location: Newark
(13.6797°N, 8.5297°E)
Time: 02:07:24
(UTC+00:00)

Courier 1B Rocket - Pass Details

Date: 18 January 2020
Orbit: 920 x 1202 km, 28.2° (Epoch: 19 February)

Event Time Altitude Azimuth Distance (km) Brightness Sun altitude
Rises 17:58:02 0° 304° (NW) 3,545 8.5 -9.8°
Reaches altitude 10° 18:00:52 10° 314° (NW) 2,602 7.6 -10.4°
Maximum altitude 18:06:28 34° 18° (NNE) 1,475 5.7 -11.7°
Enters shadow 18:10:42 17° 74° (ENE) 2,212 6.2 -12.7°
Drops below altitude 10° 18:12:13 10° 82° (E) 2,675 - -13.0°
Sets 18:15:10 0° 91° (E) 3,659 - -13.7°
